Location: Hoyos del Collado
(40.3594°N, 5.2003°W)
Time: 12:52:21
(UTC+00:00)

ISS - Pass Details

Date: 23 June 2024
Orbit: 410 x 424 km, 51.6° (Epoch: 13 July)

Event Time Altitude Azimuth Distance (km) Brightness Sun altitude
Exits shadow 03:18:05 22° 179° (S) 961 -2.4 -14.3°
Maximum altitude 03:19:28 31° 135° (SE) 754 -2.5 -14.2°
Drops below altitude 10° 03:22:28 10° 71° (ENE) 1,492 0.0 -13.8°
Sets 03:24:43 0° 61° (ENE) 2,362 1.5 -13.5°
